owner,sensor,date,latitude,longitude,vertical_datum,mass_concentration_of_oxygen_in_sea_water,qcFlag 
SCCF RECON,ioos:station:SCCF:13:1,2011-03-01T00:00:00Z,26.5255,-82.0032,2.5,6.59,1111122 
SCCF RECON,ioos:station:SCCF:13:1,2011-03-01T01:00:00Z,26.5255,-82.0032,2.55,6.24,1111122 
SCCF RECON,ioos:station:SCCF:13:1,2011-03-01T02:00:00Z,26.5255,-82.0032,2.57,6.75,1111122 
SCCF RECON,ioos:station:SCCF:13:1,2011-03-01T03:00:00Z,26.5255,-82.0032,2.576,6.55,1111122 
SCCF RECON,ioos:station:SCCF:13:1,2011-03-01T04:00:00Z,26.5255,-82.0032,2.545,6.32,1111122 
SCCF RECON,ioos:station:SCCF:13:1,2011-03-01T05:00:00Z,26.5255,-82.0032,2.49,6.33,1111122 
SCCF RECON,ioos:station:SCCF:13:1,2011-03-01T06:00:00Z,26.5255,-82.0032,2.42,5.99,1111122 
SCCF RECON,ioos:station:SCCF:13:1,2011-03-01T07:00:00Z,26.5255,-82.0032,2.34,5.84,1111122 
SCCF RECON,ioos:station:SCCF:13:1,2011-03-01T08:00:00Z,26.5255,-82.0032,2.251,5.83,1111122 
SCCF RECON,ioos:station:SCCF:13:1,2011-03-01T09:00:00Z,26.5255,-82.0032,2.16,5.89,1111122 
SCCF RECON,ioos:station:SCCF:13:1,2011-03-01T10:00:00Z,26.5255,-82.0032,2.078,6.11,1111122 
SCCF RECON,ioos:station:SCCF:13:1,2011-03-01T11:00:00Z,26.5255,-82.0032,2.02,6.14,1111122 
SCCF RECON,ioos:station:SCCF:13:1,2011-03-01T12:00:00Z,26.5255,-82.0032,2.01,6.04,1111122 
SCCF RECON,ioos:station:SCCF:13:1,2011-03-01T13:00:00Z,26.5255,-82.0032,2.08,5.97,1111122 
SCCF RECON,ioos:station:SCCF:13:1,2011-03-01T14:00:00Z,26.5255,-82.0032,2.17,5.96,1111122 
SCCF RECON,ioos:station:SCCF:13:1,2011-03-01T15:00:00Z,26.5255,-82.0032,2.25,5.87,1111122 
SCCF RECON,ioos:station:SCCF:13:1,2011-03-01T16:00:00Z,26.5255,-82.0032,2.31,5.92,1111122 
SCCF RECON,ioos:station:SCCF:13:1,2011-03-01T17:00:00Z,26.5255,-82.0032,2.35,6.23,1111122 
SCCF RECON,ioos:station:SCCF:13:1,2011-03-01T18:00:00Z,26.5255,-82.0032,2.36,6.07,1111122 
SCCF RECON,ioos:station:SCCF:13:1,2011-03-01T19:00:00Z,26.5255,-82.0032,2.34,6.17,1111122 
SCCF RECON,ioos:station:SCCF:13:1,2011-03-01T20:00:00Z,26.5255,-82.0032,2.33,6.33,1111122 
SCCF RECON,ioos:station:SCCF:13:1,2011-03-01T21:00:00Z,26.5255,-82.0032,2.305,6.29,1111122 
SCCF RECON,ioos:station:SCCF:13:1,2011-03-01T22:00:00Z,26.5255,-82.0032,2.27,6.24,1111122 
SCCF RECON,ioos:station:SCCF:13:1,2011-03-01T23:00:00Z,26.5255,-82.0032,2.26,6.05,1111122 
SCCF RECON,ioos:station:SCCF:13:1,2011-03-02T00:00:00Z,26.5255,-82.0032,2.34,5.9,1111122 
SCCF RECON,ioos:station:SCCF:13:1,2011-03-02T01:00:00Z,26.5255,-82.0032,2.45,5.76,1111122 
SCCF RECON,ioos:station:SCCF:13:1,2011-03-02T02:00:00Z,26.5255,-82.0032,2.53,5.85,1111122 
SCCF RECON,ioos:station:SCCF:13:1,2011-03-02T03:00:00Z,26.5255,-82.0032,2.57,6.19,1111122 
SCCF RECON,ioos:station:SCCF:13:1,2011-03-02T04:00:00Z,26.5255,-82.0032,2.59,6.35,1111122 
SCCF RECON,ioos:station:SCCF:13:1,2011-03-02T05:00:00Z,26.5255,-82.0032,2.572,6.2,1111122 
SCCF RECON,ioos:station:SCCF:13:1,2011-03-02T06:00:00Z,26.5255,-82.0032,2.495,6.22,1111122 
SCCF RECON,ioos:station:SCCF:13:1,2011-03-02T07:00:00Z,26.5255,-82.0032,2.41,5.99,1111122 
SCCF RECON,ioos:station:SCCF:13:1,2011-03-02T08:00:00Z,26.5255,-82.0032,2.326,5.74,1111122 
SCCF RECON,ioos:station:SCCF:13:1,2011-03-02T09:00:00Z,26.5255,-82.0032,2.234,5.8,1111122 
SCCF RECON,ioos:station:SCCF:13:1,2011-03-02T10:00:00Z,26.5255,-82.0032,2.16,5.78,1111122 
SCCF RECON,ioos:station:SCCF:13:1,2011-03-02T11:00:00Z,26.5255,-82.0032,2.082,5.84,1111122 
SCCF RECON,ioos:station:SCCF:13:1,2011-03-02T12:00:00Z,26.5255,-82.0032,2.039,5.97,1111122 
SCCF RECON,ioos:station:SCCF:13:1,2011-03-02T13:00:00Z,26.5255,-82.0032,2.04,6.03,1111122 
SCCF RECON,ioos:station:SCCF:13:1,2011-03-02T14:00:00Z,26.5255,-82.0032,2.12,6.1,1111122 
SCCF RECON,ioos:station:SCCF:13:1,2011-03-02T15:00:00Z,26.5255,-82.0032,2.221,6.06,1111122 
SCCF RECON,ioos:station:SCCF:13:1,2011-03-02T16:00:00Z,26.5255,-82.0032,2.29,5.91,1111122 
SCCF RECON,ioos:station:SCCF:13:1,2011-03-02T17:00:00Z,26.5255,-82.0032,2.32,6.12,1111122 
SCCF RECON,ioos:station:SCCF:13:1,2011-03-02T18:00:00Z,26.5255,-82.0032,2.31,6.07,1111122 
SCCF RECON,ioos:station:SCCF:13:1,2011-03-02T19:00:00Z,26.5255,-82.0032,2.28,6.38,1111122 
SCCF RECON,ioos:station:SCCF:13:1,2011-03-02T20:00:00Z,26.5255,-82.0032,2.226,6.32,1111122 
SCCF RECON,ioos:station:SCCF:13:1,2011-03-02T21:00:00Z,26.5255,-82.0032,2.18,6.47,1111122 
SCCF RECON,ioos:station:SCCF:13:1,2011-03-02T22:00:00Z,26.5255,-82.0032,2.122,6.8,1111122 
SCCF RECON,ioos:station:SCCF:13:1,2011-03-02T23:00:00Z,26.5255,-82.0032,2.105,6.73,1111122 
SCCF RECON,ioos:station:SCCF:13:1,2011-03-03T00:00:00Z,26.5255,-82.0032,2.095,6.65,1111122 
SCCF RECON,ioos:station:SCCF:13:1,2011-03-03T01:00:00Z,26.5255,-82.0032,2.153,6.62,1111122 
SCCF RECON,ioos:station:SCCF:13:1,2011-03-03T02:00:00Z,26.5255,-82.0032,2.261,6.47,1111122 
SCCF RECON,ioos:station:SCCF:13:1,2011-03-03T03:00:00Z,26.5255,-82.0032,2.345,6.44,1111122 
SCCF RECON,ioos:station:SCCF:13:1,2011-03-03T04:00:00Z,26.5255,-82.0032,2.4,6.6,1111122 
SCCF RECON,ioos:station:SCCF:13:1,2011-03-03T05:00:00Z,26.5255,-82.0032,2.426,6.53,1111122 
SCCF RECON,ioos:station:SCCF:13:1,2011-03-03T06:00:00Z,26.5255,-82.0032,2.421,6.49,1111122 
SCCF RECON,ioos:station:SCCF:13:1,2011-03-03T07:00:00Z,26.5255,-82.0032,2.35,6.33,1111122 
SCCF RECON,ioos:station:SCCF:13:1,2011-03-03T08:00:00Z,26.5255,-82.0032,2.24,6.28,1111122 
SCCF RECON,ioos:station:SCCF:13:1,2011-03-03T09:00:00Z,26.5255,-82.0032,2.18,6.14,1111122 
SCCF RECON,ioos:station:SCCF:13:1,2011-03-03T10:00:00Z,26.5255,-82.0032,2.131,5.97,1111122 
SCCF RECON,ioos:station:SCCF:13:1,2011-03-03T11:00:00Z,26.5255,-82.0032,2.082,6.12,1111122 
SCCF RECON,ioos:station:SCCF:13:1,2011-03-03T12:00:00Z,26.5255,-82.0032,2.059,6.15,1111122 
SCCF RECON,ioos:station:SCCF:13:1,2011-03-03T13:00:00Z,26.5255,-82.0032,2.1,6.2,1111122 
SCCF RECON,ioos:station:SCCF:13:1,2011-03-03T14:00:00Z,26.5255,-82.0032,2.226,6.32,1111122 
SCCF RECON,ioos:station:SCCF:13:1,2011-03-03T15:00:00Z,26.5255,-82.0032,2.317,6.0,1111122 
SCCF RECON,ioos:station:SCCF:13:1,2011-03-03T16:00:00Z,26.5255,-82.0032,2.385,6.29,1111122 
SCCF RECON,ioos:station:SCCF:13:1,2011-03-03T17:00:00Z,26.5255,-82.0032,2.421,6.49,1111122 
SCCF RECON,ioos:station:SCCF:13:1,2011-03-03T18:00:00Z,26.5255,-82.0032,2.438,6.85,1111122 
SCCF RECON,ioos:station:SCCF:13:1,2011-03-03T19:00:00Z,26.5255,-82.0032,2.439,7.0,1111122 
SCCF RECON,ioos:station:SCCF:13:1,2011-03-03T20:00:00Z,26.5255,-82.0032,2.409,6.98,1111122 
SCCF RECON,ioos:station:SCCF:13:1,2011-03-03T21:00:00Z,26.5255,-82.0032,2.352,7.01,1111122 
SCCF RECON,ioos:station:SCCF:13:1,2011-03-03T22:00:00Z,26.5255,-82.0032,2.29,6.97,1111122 
SCCF RECON,ioos:station:SCCF:13:1,2011-03-03T23:00:00Z,26.5255,-82.0032,2.224,6.89,1111122 
SCCF RECON,ioos:station:SCCF:13:1,2011-03-04T00:00:00Z,26.5255,-82.0032,2.18,6.89,1111122 
SCCF RECON,ioos:station:SCCF:13:1,2011-03-04T01:00:00Z,26.5255,-82.0032,2.24,6.78,1111122 
SCCF RECON,ioos:station:SCCF:13:1,2011-03-04T02:00:00Z,26.5255,-82.0032,2.36,6.52,1111122 
SCCF RECON,ioos:station:SCCF:13:1,2011-03-04T03:00:00Z,26.5255,-82.0032,2.441,6.64,1111122 
SCCF RECON,ioos:station:SCCF:13:1,2011-03-04T04:00:00Z,26.5255,-82.0032,2.49,6.58,1111122 
SCCF RECON,ioos:station:SCCF:13:1,2011-03-04T05:00:00Z,26.5255,-82.0032,2.52,6.57,1111122 
SCCF RECON,ioos:station:SCCF:13:1,2011-03-04T06:00:00Z,26.5255,-82.0032,2.5,6.42,1111122 
SCCF RECON,ioos:station:SCCF:13:1,2011-03-04T07:00:00Z,26.5255,-82.0032,2.439,6.29,1111122 
SCCF RECON,ioos:station:SCCF:13:1,2011-03-04T08:00:00Z,26.5255,-82.0032,2.35,6.24,1111122 
SCCF RECON,ioos:station:SCCF:13:1,2011-03-04T09:00:00Z,26.5255,-82.0032,2.28,6.14,1111122 
SCCF RECON,ioos:station:SCCF:13:1,2011-03-04T10:00:00Z,26.5255,-82.0032,2.21,6.19,1111122 
SCCF RECON,ioos:station:SCCF:13:1,2011-03-04T11:00:00Z,26.5255,-82.0032,2.14,6.32,1111122 
SCCF RECON,ioos:station:SCCF:13:1,2011-03-04T12:00:00Z,26.5255,-82.0032,2.091,6.4,1111122 
SCCF RECON,ioos:station:SCCF:13:1,2011-03-04T13:00:00Z,26.5255,-82.0032,2.077,6.44,1111122 
SCCF RECON,ioos:station:SCCF:13:1,2011-03-04T14:00:00Z,26.5255,-82.0032,2.15,6.57,1111122 
SCCF RECON,ioos:station:SCCF:13:1,2011-03-04T15:00:00Z,26.5255,-82.0032,2.28,6.61,1111122 
SCCF RECON,ioos:station:SCCF:13:1,2011-03-04T16:00:00Z,26.5255,-82.0032,2.36,6.54,1111122 
SCCF RECON,ioos:station:SCCF:13:1,2011-03-04T17:00:00Z,26.5255,-82.0032,2.421,6.61,1111122 
SCCF RECON,ioos:station:SCCF:13:1,2011-03-04T18:00:00Z,26.5255,-82.0032,2.478,6.81,1111122 
SCCF RECON,ioos:station:SCCF:13:1,2011-03-04T19:00:00Z,26.5255,-82.0032,2.49,7.05,1111122 
SCCF RECON,ioos:station:SCCF:13:1,2011-03-04T20:00:00Z,26.5255,-82.0032,2.451,7.03,1111122 
SCCF RECON,ioos:station:SCCF:13:1,2011-03-04T21:00:00Z,26.5255,-82.0032,2.39,7.11,1111122 
SCCF RECON,ioos:station:SCCF:13:1,2011-03-04T22:00:00Z,26.5255,-82.0032,2.323,7.1,1111122 
SCCF RECON,ioos:station:SCCF:13:1,2011-03-04T23:00:00Z,26.5255,-82.0032,2.289,6.9,1111122 
SCCF RECON,ioos:station:SCCF:13:1,2011-03-05T00:00:00Z,26.5255,-82.0032,2.255,6.96,1111122 
SCCF RECON,ioos:station:SCCF:13:1,2011-03-05T01:00:00Z,26.5255,-82.0032,2.26,7.11,1111122 
SCCF RECON,ioos:station:SCCF:13:1,2011-03-05T02:00:00Z,26.5255,-82.0032,2.35,6.95,1111122 
SCCF RECON,ioos:station:SCCF:13:1,2011-03-05T03:00:00Z,26.5255,-82.0032,2.446,6.4,1111122 
SCCF RECON,ioos:station:SCCF:13:1,2011-03-05T04:00:00Z,26.5255,-82.0032,2.529,6.6,1111122 
SCCF RECON,ioos:station:SCCF:13:1,2011-03-05T05:00:00Z,26.5255,-82.0032,2.59,6.72,1111122 
SCCF RECON,ioos:station:SCCF:13:1,2011-03-05T06:00:00Z,26.5255,-82.0032,2.62,6.62,1111122 
SCCF RECON,ioos:station:SCCF:13:1,2011-03-05T07:00:00Z,26.5255,-82.0032,2.61,6.41,1111122 
SCCF RECON,ioos:station:SCCF:13:1,2011-03-05T08:00:00Z,26.5255,-82.0032,2.53,6.32,1111122 
SCCF RECON,ioos:station:SCCF:13:1,2011-03-05T09:00:00Z,26.5255,-82.0032,2.44,6.3,1111122 
SCCF RECON,ioos:station:SCCF:13:1,2011-03-05T10:00:00Z,26.5255,-82.0032,2.37,6.13,1111122 
SCCF RECON,ioos:station:SCCF:13:1,2011-03-05T11:00:00Z,26.5255,-82.0032,2.31,6.14,1111122 
SCCF RECON,ioos:station:SCCF:13:1,2011-03-05T12:00:00Z,26.5255,-82.0032,2.23,6.38,1111122 
SCCF RECON,ioos:station:SCCF:13:1,2011-03-05T13:00:00Z,26.5255,-82.0032,2.19,6.48,1111122 
SCCF RECON,ioos:station:SCCF:13:1,2011-03-05T14:00:00Z,26.5255,-82.0032,2.215,6.64,1111122 
SCCF RECON,ioos:station:SCCF:13:1,2011-03-05T15:00:00Z,26.5255,-82.0032,2.337,6.73,1111122 
SCCF RECON,ioos:station:SCCF:13:1,2011-03-05T16:00:00Z,26.5255,-82.0032,2.445,6.71,1111122 
SCCF RECON,ioos:station:SCCF:13:1,2011-03-05T17:00:00Z,26.5255,-82.0032,2.512,6.63,1111122 
SCCF RECON,ioos:station:SCCF:13:1,2011-03-05T18:00:00Z,26.5255,-82.0032,2.561,6.4,1111122 
SCCF RECON,ioos:station:SCCF:13:1,2011-03-05T19:00:00Z,26.5255,-82.0032,2.58,6.99,1111122 
SCCF RECON,ioos:station:SCCF:13:1,2011-03-05T20:00:00Z,26.5255,-82.0032,2.529,7.0,1111122 
SCCF RECON,ioos:station:SCCF:13:1,2011-03-05T21:00:00Z,26.5255,-82.0032,2.438,7.0,1111122 
SCCF RECON,ioos:station:SCCF:13:1,2011-03-05T22:00:00Z,26.5255,-82.0032,2.365,7.0,1111122 
SCCF RECON,ioos:station:SCCF:13:1,2011-03-05T23:00:00Z,26.5255,-82.0032,2.3,6.91,1111122 
SCCF RECON,ioos:station:SCCF:13:1,2011-03-06T00:00:00Z,26.5255,-82.0032,2.25,6.72,1111122 
SCCF RECON,ioos:station:SCCF:13:1,2011-03-06T01:00:00Z,26.5255,-82.0032,2.22,6.73,1111122 
SCCF RECON,ioos:station:SCCF:13:1,2011-03-06T02:00:00Z,26.5255,-82.0032,2.269,6.71,1111122 
SCCF RECON,ioos:station:SCCF:13:1,2011-03-06T03:00:00Z,26.5255,-82.0032,2.39,6.64,1111122 
SCCF RECON,ioos:station:SCCF:13:1,2011-03-06T04:00:00Z,26.5255,-82.0032,2.48,6.35,1111122 
SCCF RECON,ioos:station:SCCF:13:1,2011-03-06T05:00:00Z,26.5255,-82.0032,2.55,6.4,1111122 
SCCF RECON,ioos:station:SCCF:13:1,2011-03-06T06:00:00Z,26.5255,-82.0032,2.596,6.64,1111122 
SCCF RECON,ioos:station:SCCF:13:1,2011-03-06T07:00:00Z,26.5255,-82.0032,2.6,6.4,1111122 
SCCF RECON,ioos:station:SCCF:13:1,2011-03-06T08:00:00Z,26.5255,-82.0032,2.571,6.35,1111122 
SCCF RECON,ioos:station:SCCF:13:1,2011-03-06T09:00:00Z,26.5255,-82.0032,2.5,6.34,1111122 
SCCF RECON,ioos:station:SCCF:13:1,2011-03-06T10:00:00Z,26.5255,-82.0032,2.41,6.16,1111122 
SCCF RECON,ioos:station:SCCF:13:1,2011-03-06T11:00:00Z,26.5255,-82.0032,2.336,6.03,1111122 
SCCF RECON,ioos:station:SCCF:13:1,2011-03-06T12:00:00Z,26.5255,-82.0032,2.288,6.03,1111122 
SCCF RECON,ioos:station:SCCF:13:1,2011-03-06T13:00:00Z,26.5255,-82.0032,2.25,6.11,1111122 
SCCF RECON,ioos:station:SCCF:13:1,2011-03-06T14:00:00Z,26.5255,-82.0032,2.242,6.12,1111122 
SCCF RECON,ioos:station:SCCF:13:1,2011-03-06T15:00:00Z,26.5255,-82.0032,2.309,6.24,1111122 
SCCF RECON,ioos:station:SCCF:13:1,2011-03-06T16:00:00Z,26.5255,-82.0032,2.404,6.0,1111122 
SCCF RECON,ioos:station:SCCF:13:1,2011-03-06T17:00:00Z,26.5255,-82.0032,2.49,6.33,1111122 
SCCF RECON,ioos:station:SCCF:13:1,2011-03-06T18:00:00Z,26.5255,-82.0032,2.56,6.32,1111122 
SCCF RECON,ioos:station:SCCF:13:1,2011-03-06T19:00:00Z,26.5255,-82.0032,2.59,6.67,1111122 
SCCF RECON,ioos:station:SCCF:13:1,2011-03-06T20:00:00Z,26.5255,-82.0032,2.54,6.72,1111122 
SCCF RECON,ioos:station:SCCF:13:1,2011-03-06T21:00:00Z,26.5255,-82.0032,2.459,6.57,1111122 
SCCF RECON,ioos:station:SCCF:13:1,2011-03-06T22:00:00Z,26.5255,-82.0032,2.37,6.6,1111122 
SCCF RECON,ioos:station:SCCF:13:1,2011-03-06T23:00:00Z,26.5255,-82.0032,2.292,6.6,1111122 
SCCF RECON,ioos:station:SCCF:13:1,2011-03-07T00:00:00Z,26.5255,-82.0032,2.23,6.46,1111122 
SCCF RECON,ioos:station:SCCF:13:1,2011-03-07T01:00:00Z,26.5255,-82.0032,2.184,6.45,1111122 
SCCF RECON,ioos:station:SCCF:13:1,2011-03-07T02:00:00Z,26.5255,-82.0032,2.16,6.5,1111122 
SCCF RECON,ioos:station:SCCF:13:1,2011-03-07T03:00:00Z,26.5255,-82.0032,2.16,6.52,1111122 
SCCF RECON,ioos:station:SCCF:13:1,2011-03-07T04:00:00Z,26.5255,-82.0032,2.23,6.52,1111122 
SCCF RECON,ioos:station:SCCF:13:1,2011-03-07T05:00:00Z,26.5255,-82.0032,2.35,6.4,1111122 
SCCF RECON,ioos:station:SCCF:13:1,2011-03-07T06:00:00Z,26.5255,-82.0032,2.42,6.04,1111122 
SCCF RECON,ioos:station:SCCF:13:1,2011-03-07T07:00:00Z,26.5255,-82.0032,2.45,6.16,1111122 
SCCF RECON,ioos:station:SCCF:13:1,2011-03-07T08:00:00Z,26.5255,-82.0032,2.443,6.17,1111122 
SCCF RECON,ioos:station:SCCF:13:1,2011-03-07T09:00:00Z,26.5255,-82.0032,2.381,6.15,1111122 
SCCF RECON,ioos:station:SCCF:13:1,2011-03-07T10:00:00Z,26.5255,-82.0032,2.31,6.1,1111122 
SCCF RECON,ioos:station:SCCF:13:1,2011-03-07T11:00:00Z,26.5255,-82.0032,2.26,5.95,1111122 
SCCF RECON,ioos:station:SCCF:13:1,2011-03-07T12:00:00Z,26.5255,-82.0032,2.22,5.79,1111122 
SCCF RECON,ioos:station:SCCF:13:1,2011-03-07T13:00:00Z,26.5255,-82.0032,2.169,5.87,1111122 
SCCF RECON,ioos:station:SCCF:13:1,2011-03-07T14:00:00Z,26.5255,-82.0032,2.15,6.19,1111122 
SCCF RECON,ioos:station:SCCF:13:1,2011-03-07T15:00:00Z,26.5255,-82.0032,2.2,6.59,1111122 
SCCF RECON,ioos:station:SCCF:13:1,2011-03-07T17:00:00Z,26.5255,-82.0032,2.408,6.67,1111122 
SCCF RECON,ioos:station:SCCF:13:1,2011-03-07T18:00:00Z,26.5255,-82.0032,2.47,6.51,1111122 
SCCF RECON,ioos:station:SCCF:13:1,2011-03-07T19:00:00Z,26.5255,-82.0032,2.5,6.39,1111122 
SCCF RECON,ioos:station:SCCF:13:1,2011-03-07T20:00:00Z,26.5255,-82.0032,2.511,7.38,1111122 
SCCF RECON,ioos:station:SCCF:13:1,2011-03-07T21:00:00Z,26.5255,-82.0032,2.472,7.59,1111122 
SCCF RECON,ioos:station:SCCF:13:1,2011-03-07T22:00:00Z,26.5255,-82.0032,2.38,7.26,1111122 
SCCF RECON,ioos:station:SCCF:13:1,2011-03-07T23:00:00Z,26.5255,-82.0032,2.3,7.22,1111122 
SCCF RECON,ioos:station:SCCF:13:1,2011-03-08T00:00:00Z,26.5255,-82.0032,2.236,7.0,1111122 
SCCF RECON,ioos:station:SCCF:13:1,2011-03-08T01:00:00Z,26.5255,-82.0032,2.19,6.83,1111122 
SCCF RECON,ioos:station:SCCF:13:1,2011-03-08T02:00:00Z,26.5255,-82.0032,2.16,6.66,1111122 
SCCF RECON,ioos:station:SCCF:13:1,2011-03-08T03:00:00Z,26.5255,-82.0032,2.166,6.73,1111122 
SCCF RECON,ioos:station:SCCF:13:1,2011-03-08T04:00:00Z,26.5255,-82.0032,2.233,6.84,1111122 
SCCF RECON,ioos:station:SCCF:13:1,2011-03-08T05:00:00Z,26.5255,-82.0032,2.34,6.85,1111122 
SCCF RECON,ioos:station:SCCF:13:1,2011-03-08T06:00:00Z,26.5255,-82.0032,2.391,6.29,1111122 
SCCF RECON,ioos:station:SCCF:13:1,2011-03-08T07:00:00Z,26.5255,-82.0032,2.429,6.42,1111122 
SCCF RECON,ioos:station:SCCF:13:1,2011-03-08T08:00:00Z,26.5255,-82.0032,2.441,6.42,1111122 
SCCF RECON,ioos:station:SCCF:13:1,2011-03-08T09:00:00Z,26.5255,-82.0032,2.43,6.62,1111122 
SCCF RECON,ioos:station:SCCF:13:1,2011-03-08T10:00:00Z,26.5255,-82.0032,2.374,6.56,1111122 
SCCF RECON,ioos:station:SCCF:13:1,2011-03-08T11:00:00Z,26.5255,-82.0032,2.32,6.48,1111122 
SCCF RECON,ioos:station:SCCF:13:1,2011-03-08T12:00:00Z,26.5255,-82.0032,2.27,6.27,1111122 
SCCF RECON,ioos:station:SCCF:13:1,2011-03-08T13:00:00Z,26.5255,-82.0032,2.25,6.15,1111122 
SCCF RECON,ioos:station:SCCF:13:1,2011-03-08T14:00:00Z,26.5255,-82.0032,2.25,6.56,1111122 
SCCF RECON,ioos:station:SCCF:13:1,2011-03-08T15:00:00Z,26.5255,-82.0032,2.32,6.76,1111122 
SCCF RECON,ioos:station:SCCF:13:1,2011-03-08T16:00:00Z,26.5255,-82.0032,2.408,6.51,1111122 
SCCF RECON,ioos:station:SCCF:13:1,2011-03-08T17:00:00Z,26.5255,-82.0032,2.473,6.96,1111122 
SCCF RECON,ioos:station:SCCF:13:1,2011-03-08T18:00:00Z,26.5255,-82.0032,2.52,6.73,1111122 
SCCF RECON,ioos:station:SCCF:13:1,2011-03-08T19:00:00Z,26.5255,-82.0032,2.56,7.09,1111122 
SCCF RECON,ioos:station:SCCF:13:1,2011-03-08T20:00:00Z,26.5255,-82.0032,2.58,7.57,1111122 
SCCF RECON,ioos:station:SCCF:13:1,2011-03-08T21:00:00Z,26.5255,-82.0032,2.566,7.45,1111122 
SCCF RECON,ioos:station:SCCF:13:1,2011-03-08T22:00:00Z,26.5255,-82.0032,2.487,7.42,1111122 
SCCF RECON,ioos:station:SCCF:13:1,2011-03-08T23:00:00Z,26.5255,-82.0032,2.41,7.32,1111122 
SCCF RECON,ioos:station:SCCF:13:1,2011-03-09T00:00:00Z,26.5255,-82.0032,2.33,7.13,1111122 
SCCF RECON,ioos:station:SCCF:13:1,2011-03-09T01:00:00Z,26.5255,-82.0032,2.25,7.1,1111122 
SCCF RECON,ioos:station:SCCF:13:1,2011-03-09T02:00:00Z,26.5255,-82.0032,2.18,7.03,1111122 
SCCF RECON,ioos:station:SCCF:13:1,2011-03-09T03:00:00Z,26.5255,-82.0032,2.13,6.98,1111122 
SCCF RECON,ioos:station:SCCF:13:1,2011-03-09T04:00:00Z,26.5255,-82.0032,2.13,6.92,1111122 
SCCF RECON,ioos:station:SCCF:13:1,2011-03-09T05:00:00Z,26.5255,-82.0032,2.24,6.9,1111122 
SCCF RECON,ioos:station:SCCF:13:1,2011-03-09T06:00:00Z,26.5255,-82.0032,2.35,6.73,1111122 
SCCF RECON,ioos:station:SCCF:13:1,2011-03-09T07:00:00Z,26.5255,-82.0032,2.399,6.52,1111122 
SCCF RECON,ioos:station:SCCF:13:1,2011-03-09T08:00:00Z,26.5255,-82.0032,2.415,6.6,1111122 
SCCF RECON,ioos:station:SCCF:13:1,2011-03-09T09:00:00Z,26.5255,-82.0032,2.428,6.58,1111122 
SCCF RECON,ioos:station:SCCF:13:1,2011-03-09T10:00:00Z,26.5255,-82.0032,2.42,6.54,1111122 
SCCF RECON,ioos:station:SCCF:13:1,2011-03-09T11:00:00Z,26.5255,-82.0032,2.38,6.52,1111122 
SCCF RECON,ioos:station:SCCF:13:1,2011-03-09T12:00:00Z,26.5255,-82.0032,2.37,6.38,1111122 
SCCF RECON,ioos:station:SCCF:13:1,2011-03-09T13:00:00Z,26.5255,-82.0032,2.373,6.37,1111122 
SCCF RECON,ioos:station:SCCF:13:1,2011-03-09T14:00:00Z,26.5255,-82.0032,2.361,6.31,1111122 
SCCF RECON,ioos:station:SCCF:13:1,2011-03-09T15:00:00Z,26.5255,-82.0032,2.382,6.37,1111122 
SCCF RECON,ioos:station:SCCF:13:1,2011-03-09T16:00:00Z,26.5255,-82.0032,2.436,6.26,1111122 
SCCF RECON,ioos:station:SCCF:13:1,2011-03-09T17:00:00Z,26.5255,-82.0032,2.49,7.24,1111122 
SCCF RECON,ioos:station:SCCF:13:1,2011-03-09T18:00:00Z,26.5255,-82.0032,2.561,7.31,1111122 
SCCF RECON,ioos:station:SCCF:13:1,2011-03-09T19:00:00Z,26.5255,-82.0032,2.627,7.11,1111122 
SCCF RECON,ioos:station:SCCF:13:1,2011-03-09T20:00:00Z,26.5255,-82.0032,2.688,7.36,1111122 
SCCF RECON,ioos:station:SCCF:13:1,2011-03-09T21:00:00Z,26.5255,-82.0032,2.71,7.37,1111122 
SCCF RECON,ioos:station:SCCF:13:1,2011-03-09T22:00:00Z,26.5255,-82.0032,2.68,7.51,1111122 
SCCF RECON,ioos:station:SCCF:13:1,2011-03-09T23:00:00Z,26.5255,-82.0032,2.598,7.43,1111122 
SCCF RECON,ioos:station:SCCF:13:1,2011-03-10T00:00:00Z,26.5255,-82.0032,2.51,7.27,1111122 
SCCF RECON,ioos:station:SCCF:13:1,2011-03-10T01:00:00Z,26.5255,-82.0032,2.415,6.93,1111122 
SCCF RECON,ioos:station:SCCF:13:1,2011-03-10T02:00:00Z,26.5255,-82.0032,2.348,6.66,1111122 
SCCF RECON,ioos:station:SCCF:13:1,2011-03-10T03:00:00Z,26.5255,-82.0032,2.29,6.83,1111122 
SCCF RECON,ioos:station:SCCF:13:1,2011-03-10T04:00:00Z,26.5255,-82.0032,2.27,6.79,1111122 
SCCF RECON,ioos:station:SCCF:13:1,2011-03-10T05:00:00Z,26.5255,-82.0032,2.3,6.75,1111122 
SCCF RECON,ioos:station:SCCF:13:1,2011-03-10T06:00:00Z,26.5255,-82.0032,2.38,6.73,1111122 
SCCF RECON,ioos:station:SCCF:13:1,2011-03-10T07:00:00Z,26.5255,-82.0032,2.43,6.53,1111122 
SCCF RECON,ioos:station:SCCF:13:1,2011-03-10T08:00:00Z,26.5255,-82.0032,2.46,6.01,1111122 
SCCF RECON,ioos:station:SCCF:13:1,2011-03-10T09:00:00Z,26.5255,-82.0032,2.487,6.34,1111122 
SCCF RECON,ioos:station:SCCF:13:1,2011-03-10T10:00:00Z,26.5255,-82.0032,2.46,6.25,1111122 
SCCF RECON,ioos:station:SCCF:13:1,2011-03-10T11:00:00Z,26.5255,-82.0032,2.425,6.27,1111122 
SCCF RECON,ioos:station:SCCF:13:1,2011-03-10T12:00:00Z,26.5255,-82.0032,2.448,6.09,1111122 
SCCF RECON,ioos:station:SCCF:13:1,2011-03-10T13:00:00Z,26.5255,-82.0032,2.42,5.74,1111122 
SCCF RECON,ioos:station:SCCF:13:1,2011-03-10T14:00:00Z,26.5255,-82.0032,2.377,6.12,1111122 
SCCF RECON,ioos:station:SCCF:13:1,2011-03-10T15:00:00Z,26.5255,-82.0032,2.38,5.91,1111122 
SCCF RECON,ioos:station:SCCF:13:1,2011-03-10T16:00:00Z,26.5255,-82.0032,2.38,6.2,1111122 
SCCF RECON,ioos:station:SCCF:13:1,2011-03-10T17:00:00Z,26.5255,-82.0032,2.323,6.27,1111122 
SCCF RECON,ioos:station:SCCF:13:1,2011-03-10T18:00:00Z,26.5255,-82.0032,2.43,6.54,1111122 
SCCF RECON,ioos:station:SCCF:13:1,2011-03-10T19:00:00Z,26.5255,-82.0032,2.52,6.34,1111122 
SCCF RECON,ioos:station:SCCF:13:1,2011-03-10T20:00:00Z,26.5255,-82.0032,2.59,6.26,1111122 
SCCF RECON,ioos:station:SCCF:13:1,2011-03-10T21:00:00Z,26.5255,-82.0032,2.61,6.58,1111122 
SCCF RECON,ioos:station:SCCF:13:1,2011-03-10T22:00:00Z,26.5255,-82.0032,2.58,6.83,1111122 
SCCF RECON,ioos:station:SCCF:13:1,2011-03-10T23:00:00Z,26.5255,-82.0032,2.53,6.69,1111122 
SCCF RECON,ioos:station:SCCF:13:1,2011-03-11T00:00:00Z,26.5255,-82.0032,2.46,6.48,1111122 
SCCF RECON,ioos:station:SCCF:13:1,2011-03-11T01:00:00Z,26.5255,-82.0032,2.38,6.3,1111122 
SCCF RECON,ioos:station:SCCF:13:1,2011-03-11T02:00:00Z,26.5255,-82.0032,2.33,6.23,1111122 
SCCF RECON,ioos:station:SCCF:13:1,2011-03-11T03:00:00Z,26.5255,-82.0032,2.257,6.19,1111122 
SCCF RECON,ioos:station:SCCF:13:1,2011-03-11T04:00:00Z,26.5255,-82.0032,2.188,6.26,1111122 
SCCF RECON,ioos:station:SCCF:13:1,2011-03-11T05:00:00Z,26.5255,-82.0032,2.13,6.36,1111122 
SCCF RECON,ioos:station:SCCF:13:1,2011-03-11T06:00:00Z,26.5255,-82.0032,2.1,6.4,1111122 
SCCF RECON,ioos:station:SCCF:13:1,2011-03-11T07:00:00Z,26.5255,-82.0032,2.104,6.4,1111122 
SCCF RECON,ioos:station:SCCF:13:1,2011-03-11T08:00:00Z,26.5255,-82.0032,2.2,6.37,1111122 
SCCF RECON,ioos:station:SCCF:13:1,2011-03-11T09:00:00Z,26.5255,-82.0032,2.26,6.37,1111122 
SCCF RECON,ioos:station:SCCF:13:1,2011-03-11T10:00:00Z,26.5255,-82.0032,2.25,6.26,1111122 
SCCF RECON,ioos:station:SCCF:13:1,2011-03-11T11:00:00Z,26.5255,-82.0032,2.259,6.24,1111122 
SCCF RECON,ioos:station:SCCF:13:1,2011-03-11T12:00:00Z,26.5255,-82.0032,2.23,6.32,1111122 
SCCF RECON,ioos:station:SCCF:13:1,2011-03-11T13:00:00Z,26.5255,-82.0032,2.208,6.25,1111122 
SCCF RECON,ioos:station:SCCF:13:1,2011-03-11T14:00:00Z,26.5255,-82.0032,2.17,6.33,1111122 
SCCF RECON,ioos:station:SCCF:13:1,2011-03-11T15:00:00Z,26.5255,-82.0032,2.177,6.5,1111122 
SCCF RECON,ioos:station:SCCF:13:1,2011-03-11T16:00:00Z,26.5255,-82.0032,2.249,6.76,1111122 
SCCF RECON,ioos:station:SCCF:13:1,2011-03-11T17:00:00Z,26.5255,-82.0032,2.28,6.69,1111122 
SCCF RECON,ioos:station:SCCF:13:1,2011-03-11T18:00:00Z,26.5255,-82.0032,2.314,6.58,1111122 
SCCF RECON,ioos:station:SCCF:13:1,2011-03-11T19:00:00Z,26.5255,-82.0032,2.347,6.7,1111122 
SCCF RECON,ioos:station:SCCF:13:1,2011-03-11T20:00:00Z,26.5255,-82.0032,2.39,6.77,1111122 
SCCF RECON,ioos:station:SCCF:13:1,2011-03-11T21:00:00Z,26.5255,-82.0032,2.407,6.94,1111122 